Home   Weather   Lübeck   Past weeks
Flag for Germany

Past Weather in Lübeck, Schleswig-Holstein, Germany — Yesterday and Last 2 Weeks

Now
57 °F

Passing clouds.


Feels Like: 55 °F
Forecast: 60 / 44 °F
Wind: 10 mph from Southeast

Location: Luebeck-Blankensee

Current Time: Apr 6, 2020 at 12:10:32 pm

Latest Report: Apr 6, 2020 at 11:20 am


Visibility: N/A

Pressure: 30.15 "Hg

Humidity: 41%

Dew Point: 34 °F

Location of LübeckLocation

Past Weather in Lübeck — Graph

°F

Lübeck Temperature Yesterday

Maximum temperature yesterday: 61 °F (at 2:20 pm)
Minimum temperature yesterday: 39 °F (at 7:20 am)
Average temperature yesterday: 55 °F

High & Low Weather Summary for the Past Weeks

 TemperatureHumidityPressure
High61 °F (Apr 5, 2:20 pm)100% (Mar 30, 7:20 am)30.74 "Hg (Mar 30, 7:20 am)
Low28 °F (Mar 23, 6:50 am)20% (Mar 25, 3:50 pm)29.62 "Hg (Apr 2, 8:20 pm)
Average44 °F53%30.29 "Hg
* Reported Mar 22 10:20 am — Apr 6 11:20 am, Lübeck. Weather by CustomWeather, © 2020

Note: Actual official high and low records may vary slightly from our data, if they occured in-between our weather recording intervals... More about our weather records

Lübeck Weather History for the Previous 24 Hours

Scroll right to see more
 ConditionsComfort  
Time TempWeatherWind HumidityBarometerVisibility
11:20 am
Mon, Apr 6
57 °FPassing clouds.10 mph41%30.15 "HgN/A
10:50 am55 °FPassing clouds.8 mph44%30.15 "HgN/A
10:20 am54 °FPassing clouds.10 mph44%30.15 "HgN/A
9:50 am52 °FPassing clouds.9 mph47%30.15 "HgN/A
9:20 am50 °FPassing clouds.8 mph47%30.15 "HgN/A
8:50 am48 °FPassing clouds.9 mph50%30.15 "HgN/A
8:20 am46 °FSunny.10 mph53%30.15 "Hg10 mi
7:50 am45 °FPassing clouds.8 mph57%30.15 "HgN/A
7:20 am45 °FSunny.8 mph57%30.15 "Hg10 mi
6:50 am43 °FPassing clouds.7 mph61%30.15 "HgN/A
8:50 pm
Sun, Apr 5
55 °FPassing clouds.7 mph41%30.24 "HgN/A
8:20 pm55 °FPassing clouds.6 mph41%30.24 "HgN/A
7:50 pm57 °FPassing clouds.7 mph36%30.27 "HgN/A
7:20 pm59 °FPassing clouds.8 mph34%30.27 "HgN/A
6:50 pm61 °FPassing clouds.9 mph34%30.27 "HgN/A
6:20 pm61 °FPassing clouds.9 mph36%30.27 "HgN/A
5:50 pm61 °FPassing clouds.9 mph36%30.27 "HgN/A
5:20 pm61 °FPassing clouds.10 mph36%30.27 "HgN/A
4:50 pm61 °FPassing clouds.12 mph36%30.30 "HgN/A
4:20 pm61 °FPassing clouds.10 mph36%30.30 "HgN/A
3:20 pm61 °FPassing clouds.9 mph36%30.33 "HgN/A
2:50 pm61 °FSunny.8 mph36%30.33 "Hg10 mi
2:20 pm61 °FPassing clouds.10 mph39%30.33 "HgN/A
1:50 pm59 °FPassing clouds.12 mph39%30.36 "HgN/A
1:20 pm59 °FPassing clouds.10 mph42%30.36 "HgN/A
12:50 pm57 °FPassing clouds.12 mph41%30.36 "HgN/A
12:20 pm57 °FPassing clouds.10 mph41%30.36 "HgN/A
Weather by CustomWeather, © 2020

See weather overview

Advertising